Time,TemperatureF,DewpointF,PressureIn,WindDirection,WindDirectionDegrees,WindSpeedMPH,WindSpeedGustMPH,Humidity,HourlyPrecipIn,Conditions,Clouds,dailyrainin,SoftwareType,DateUTC
2013-11-24 00:00:00,3.6,0.1,30.75,SW,225,0.0,-999.0,85,-99.99,,,0.00,Acu-Link.com,2013-11-24 06:00:00,
2013-11-24 00:15:00,3.4,0.2,30.75,WSW,247,2.7,-999.0,86,-99.99,,,0.00,Acu-Link.com,2013-11-24 06:15:00,
2013-11-24 00:30:00,2.8,-0.4,30.75,WSW,247,0.0,-999.0,86,-99.99,,,0.00,Acu-Link.com,2013-11-24 06:30:00,
2013-11-24 00:45:00,2.7,-0.5,30.73,WSW,247,1.1,-999.0,86,-99.99,,,0.00,Acu-Link.com,2013-11-24 06:45:00,
2013-11-24 01:00:00,2.3,-0.7,30.73,WSW,247,0.0,-999.0,87,-99.99,,,0.00,Acu-Link.com,2013-11-24 07:00:00,
2013-11-24 01:15:00,3.0,0.3,30.72,West,270,4.7,-999.0,88,-99.99,,,0.00,Acu-Link.com,2013-11-24 07:15:00,
2013-11-24 01:30:00,3.6,0.4,30.72,WSW,247,1.7,-999.0,86,-99.99,,,0.00,Acu-Link.com,2013-11-24 07:30:00,
2013-11-24 01:45:00,2.8,-0.7,30.73,WSW,247,0.0,-999.0,85,-99.99,,,0.00,Acu-Link.com,2013-11-24 07:45:00,
2013-11-24 02:01:00,2.7,-0.8,30.73,WSW,247,0.0,-999.0,85,-99.99,,,0.00,Acu-Link.com,2013-11-24 08:01:00,
2013-11-24 02:16:00,2.3,-1.2,30.73,SW,225,0.0,-999.0,85,-99.99,,,0.00,Acu-Link.com,2013-11-24 08:16:00,
2013-11-24 02:31:00,2.7,-0.3,30.72,WSW,247,2.7,-999.0,87,-99.99,,,0.00,Acu-Link.com,2013-11-24 08:31:00,
2013-11-24 02:46:00,3.0,-0.2,30.72,SW,225,3.2,-999.0,86,-99.99,,,0.00,Acu-Link.com,2013-11-24 08:46:00,
2013-11-24 03:01:00,3.2,0.0,30.71,SW,225,3.2,-999.0,86,-99.99,,,0.00,Acu-Link.com,2013-11-24 09:01:00,
2013-11-24 03:16:00,3.6,0.1,30.71,SW,225,2.7,-999.0,85,-99.99,,,0.00,Acu-Link.com,2013-11-24 09:16:00,
2013-11-24 03:31:00,3.6,0.1,30.69,SW,225,2.7,-999.0,85,-99.99,,,0.00,Acu-Link.com,2013-11-24 09:31:00,
2013-11-24 03:47:00,3.7,0.0,30.68,SW,225,2.7,-999.0,84,-99.99,,,0.00,Acu-Link.com,2013-11-24 09:47:00,
2013-11-24 04:02:00,3.9,-0.1,30.67,SW,225,3.7,-999.0,83,-99.99,,,0.00,Acu-Link.com,2013-11-24 10:02:00,
2013-11-24 04:17:00,4.3,0.3,30.67,SW,225,4.2,-999.0,83,-99.99,,,0.00,Acu-Link.com,2013-11-24 10:17:00,
2013-11-24 04:32:00,4.8,0.8,30.67,WSW,247,3.7,-999.0,83,-99.99,,,0.00,Acu-Link.com,2013-11-24 10:32:00,
2013-11-24 04:47:00,5.0,0.7,30.68,SW,225,3.7,-999.0,82,-99.99,,,0.00,Acu-Link.com,2013-11-24 10:47:00,
2013-11-24 05:03:00,5.2,0.7,30.68,SW,225,2.7,-999.0,81,-99.99,,,0.00,Acu-Link.com,2013-11-24 11:03:00,
2013-11-24 05:18:00,5.4,0.9,30.67,SSW,202,3.2,-999.0,81,-99.99,,,0.00,Acu-Link.com,2013-11-24 11:18:00,
2013-11-24 05:33:00,5.4,0.9,30.67,SSE,157,2.7,-999.0,81,-99.99,,,0.00,Acu-Link.com,2013-11-24 11:33:00,
2013-11-24 05:48:00,5.4,0.9,30.67,SSE,157,3.2,-999.0,81,-99.99,,,0.00,Acu-Link.com,2013-11-24 11:48:00,
2013-11-24 06:03:00,5.7,1.4,30.65,SSW,202,4.7,-999.0,82,-99.99,,,0.00,Acu-Link.com,2013-11-24 12:03:00,
2013-11-24 06:19:00,6.4,1.6,30.65,SSW,202,5.3,-999.0,80,-99.99,,,0.00,Acu-Link.com,2013-11-24 12:19:00,
2013-11-24 06:34:00,7.5,2.1,30.65,SW,225,6.8,-999.0,78,-99.99,,,0.00,Acu-Link.com,2013-11-24 12:34:00,
2013-11-24 06:49:00,8.1,2.4,30.65,West,270,8.3,-999.0,77,-99.99,,,0.00,Acu-Link.com,2013-11-24 12:49:00,
2013-11-24 07:04:00,8.6,2.6,30.65,SSW,202,9.9,-999.0,76,-99.99,,,0.00,Acu-Link.com,2013-11-24 13:04:00,
2013-11-24 07:19:00,9.0,2.4,30.64,SW,225,8.9,-999.0,74,-99.99,,,0.00,Acu-Link.com,2013-11-24 13:19:00,
2013-11-24 07:35:00,9.7,2.8,30.63,South,180,14.5,-999.0,73,-99.99,,,0.00,Acu-Link.com,2013-11-24 13:35:00,
2013-11-24 07:50:00,10.6,3.7,30.63,SW,225,11.4,-999.0,73,-99.99,,,0.00,Acu-Link.com,2013-11-24 13:50:00,
2013-11-24 08:05:00,11.5,4.0,30.63,NNW,337,15.0,-999.0,71,-99.99,,,0.00,Acu-Link.com,2013-11-24 14:05:00,
2013-11-24 08:20:00,11.8,3.9,30.62,West,270,14.0,-999.0,70,-99.99,,,0.00,Acu-Link.com,2013-11-24 14:20:00,
2013-11-24 08:35:00,12.6,4.4,30.61,SSW,202,12.5,-999.0,69,-99.99,,,0.00,Acu-Link.com,2013-11-24 14:35:00,
2013-11-24 08:51:00,13.3,4.4,30.61,West,270,14.0,-999.0,67,-99.99,,,0.00,Acu-Link.com,2013-11-24 14:51:00,
2013-11-24 09:06:00,14.2,5.3,30.59,WNW,292,19.1,-999.0,67,-99.99,,,0.00,Acu-Link.com,2013-11-24 15:06:00,
2013-11-24 09:21:00,15.1,6.1,30.59,SW,225,14.5,-999.0,67,-99.99,,,0.00,Acu-Link.com,2013-11-24 15:21:00,
2013-11-24 09:36:00,15.3,5.7,30.59,West,270,22.7,-999.0,65,-99.99,,,0.00,Acu-Link.com,2013-11-24 15:36:00,
2013-11-24 09:51:00,16.2,6.5,30.58,South,180,16.1,-999.0,65,-99.99,,,0.00,Acu-Link.com,2013-11-24 15:51:00,
2013-11-24 10:06:00,16.3,5.9,30.57,SSW,202,17.1,-999.0,63,-99.99,,,0.00,Acu-Link.com,2013-11-24 16:06:00,
2013-11-24 10:21:00,18.0,7.2,30.56,SW,225,15.0,-999.0,62,-99.99,,,0.00,Acu-Link.com,2013-11-24 16:21:00,
2013-11-24 10:37:00,19.2,7.6,30.55,South,180,14.0,-999.0,60,-99.99,,,0.00,Acu-Link.com,2013-11-24 16:37:00,
2013-11-24 10:52:00,19.4,6.3,30.54,WSW,247,15.0,-999.0,56,-99.99,,,0.00,Acu-Link.com,2013-11-24 16:52:00,
2013-11-24 11:07:00,19.9,6.0,30.53,SSW,202,21.7,-999.0,54,-99.99,,,0.00,Acu-Link.com,2013-11-24 17:07:00,
2013-11-24 11:22:00,21.0,7.0,30.52,SW,225,15.5,-999.0,54,-99.99,,,0.00,Acu-Link.com,2013-11-24 17:22:00,
2013-11-24 11:37:00,21.4,7.0,30.51,SW,225,21.7,-999.0,53,-99.99,,,0.00,Acu-Link.com,2013-11-24 17:37:00,
2013-11-24 11:53:00,21.2,5.5,30.49,SW,225,20.7,-999.0,50,-99.99,,,0.00,Acu-Link.com,2013-11-24 17:53:00,
2013-11-24 12:08:00,21.6,6.7,30.47,SW,225,19.1,-999.0,52,-99.99,,,0.00,Acu-Link.com,2013-11-24 18:08:00,
2013-11-24 12:23:00,22.1,8.4,30.46,SW,225,15.5,-999.0,55,-99.99,,,0.00,Acu-Link.com,2013-11-24 18:23:00,
2013-11-24 12:38:00,23.0,9.3,30.45,SSW,202,18.1,-999.0,55,-99.99,,,0.00,Acu-Link.com,2013-11-24 18:38:00,
2013-11-24 12:53:00,23.2,9.1,30.43,SSW,202,16.6,-999.0,54,-99.99,,,0.00,Acu-Link.com,2013-11-24 18:53:00,
2013-11-24 13:08:00,23.2,8.6,30.42,South,180,21.7,-999.0,53,-99.99,,,0.00,Acu-Link.com,2013-11-24 19:08:00,
2013-11-24 13:23:00,24.1,9.9,30.41,WSW,247,15.5,-999.0,54,-99.99,,,0.00,Acu-Link.com,2013-11-24 19:23:00,
2013-11-24 13:39:00,24.3,10.1,30.39,SSW,202,23.8,-999.0,54,-99.99,,,0.00,Acu-Link.com,2013-11-24 19:39:00,
2013-11-24 13:54:00,24.3,10.1,30.38,WSW,247,18.6,-999.0,54,-99.99,,,0.00,Acu-Link.com,2013-11-24 19:54:00,
2013-11-24 14:09:00,23.9,10.1,30.36,SSW,202,18.1,-999.0,55,-99.99,,,0.00,Acu-Link.com,2013-11-24 20:09:00,
2013-11-24 14:24:00,24.4,11.0,30.36,South,180,20.7,-999.0,56,-99.99,,,0.00,Acu-Link.com,2013-11-24 20:24:00,
2013-11-24 14:39:00,24.3,10.9,30.35,SSW,202,21.2,-999.0,56,-99.99,,,0.00,Acu-Link.com,2013-11-24 20:39:00,
2013-11-24 14:54:00,24.6,11.6,30.34,WSW,247,23.3,-999.0,57,-99.99,,,0.00,Acu-Link.com,2013-11-24 20:54:00,
2013-11-24 15:09:00,24.8,11.4,30.34,South,180,19.7,-999.0,56,-99.99,,,0.00,Acu-Link.com,2013-11-24 21:09:00,
2013-11-24 15:24:00,24.4,11.4,30.33,SSW,202,22.7,-999.0,57,-99.99,,,0.00,Acu-Link.com,2013-11-24 21:24:00,
2013-11-24 15:39:00,24.4,11.8,30.32,SW,225,17.1,-999.0,58,-99.99,,,0.00,Acu-Link.com,2013-11-24 21:39:00,
2013-11-24 15:55:00,24.4,12.2,30.31,SSW,202,23.3,-999.0,59,-99.99,,,0.00,Acu-Link.com,2013-11-24 21:55:00,
2013-11-24 16:10:00,24.1,12.3,30.30,South,180,22.7,-999.0,60,-99.99,,,0.00,Acu-Link.com,2013-11-24 22:10:00,
2013-11-24 16:25:00,23.7,12.6,30.30,SSW,202,23.3,-999.0,62,-99.99,,,0.00,Acu-Link.com,2013-11-24 22:25:00,
2013-11-24 16:40:00,22.8,12.8,30.30,SSW,202,18.1,-999.0,65,-99.99,,,0.00,Acu-Link.com,2013-11-24 22:40:00,
2013-11-24 16:55:00,22.1,12.5,30.30,West,270,13.0,-999.0,66,-99.99,,,0.00,Acu-Link.com,2013-11-24 22:55:00,
2013-11-24 17:10:00,21.9,12.3,30.30,West,270,13.5,-999.0,66,-99.99,,,0.00,Acu-Link.com,2013-11-24 23:10:00,
2013-11-24 17:25:00,21.7,12.1,30.30,SSW,202,13.5,-999.0,66,-99.99,,,0.00,Acu-Link.com,2013-11-24 23:25:00,
2013-11-24 17:41:00,21.2,12.6,30.30,SSW,202,16.1,-999.0,69,-99.99,,,0.00,Acu-Link.com,2013-11-24 23:41:00,
2013-11-24 17:56:00,21.0,12.8,30.29,SW,225,16.6,-999.0,70,-99.99,,,0.00,Acu-Link.com,2013-11-24 23:56:00,
2013-11-24 18:11:00,21.0,12.5,30.28,SSW,202,16.1,-999.0,69,-99.99,,,0.00,Acu-Link.com,2013-11-25 00:11:00,
2013-11-24 18:26:00,20.8,12.6,30.28,SSW,202,18.6,-999.0,70,-99.99,,,0.00,Acu-Link.com,2013-11-25 00:26:00,
2013-11-24 18:41:00,20.8,12.6,30.27,West,270,14.0,-999.0,70,-99.99,,,0.00,Acu-Link.com,2013-11-25 00:41:00,
2013-11-24 18:57:00,20.7,12.5,30.27,South,180,13.5,-999.0,70,-99.99,,,0.00,Acu-Link.com,2013-11-25 00:57:00,
2013-11-24 19:12:00,20.7,12.5,30.26,SSW,202,13.0,-999.0,70,-99.99,,,0.00,Acu-Link.com,2013-11-25 01:12:00,
2013-11-24 19:27:00,20.8,12.3,30.24,SSW,202,17.1,-999.0,69,-99.99,,,0.00,Acu-Link.com,2013-11-25 01:27:00,
2013-11-24 19:42:00,20.8,12.3,30.25,SSW,202,15.5,-999.0,69,-99.99,,,0.00,Acu-Link.com,2013-11-25 01:42:00,
2013-11-24 19:57:00,20.5,12.3,30.24,WSW,247,16.6,-999.0,70,-99.99,,,0.00,Acu-Link.com,2013-11-25 01:57:00,
2013-11-24 20:12:00,20.8,12.3,30.23,SSW,202,24.3,-999.0,69,-99.99,,,0.00,Acu-Link.com,2013-11-25 02:12:00,
2013-11-24 20:28:00,20.7,11.8,30.22,SW,225,15.5,-999.0,68,-99.99,,,0.00,Acu-Link.com,2013-11-25 02:28:00,
2013-11-24 20:43:00,20.8,11.6,30.22,South,180,20.7,-999.0,67,-99.99,,,0.00,Acu-Link.com,2013-11-25 02:43:00,
2013-11-24 20:58:00,21.0,11.8,30.21,SW,225,22.7,-999.0,67,-99.99,,,0.00,Acu-Link.com,2013-11-25 02:58:00,
2013-11-24 21:13:00,21.4,12.2,30.21,SSW,202,14.0,-999.0,67,-99.99,,,0.00,Acu-Link.com,2013-11-25 03:13:00,
2013-11-24 21:29:00,21.4,12.2,30.22,SSW,202,13.0,-999.0,67,-99.99,,,0.00,Acu-Link.com,2013-11-25 03:29:00,
2013-11-24 21:44:00,21.7,12.5,30.21,SW,225,13.5,-999.0,67,-99.99,,,0.00,Acu-Link.com,2013-11-25 03:44:00,
2013-11-24 21:59:00,21.7,12.5,30.20,West,270,21.2,-999.0,67,-99.99,,,0.00,Acu-Link.com,2013-11-25 03:59:00,
2013-11-24 22:14:00,21.9,12.7,30.20,SSW,202,19.1,-999.0,67,-99.99,,,0.00,Acu-Link.com,2013-11-25 04:14:00,
2013-11-24 22:29:00,21.9,12.7,30.19,SW,225,23.3,-999.0,67,-99.99,,,0.00,Acu-Link.com,2013-11-25 04:29:00,
2013-11-24 22:45:00,21.9,12.3,30.17,South,180,25.8,-999.0,66,-99.99,,,0.00,Acu-Link.com,2013-11-25 04:45:00,
2013-11-24 23:00:00,21.9,12.3,30.18,SSW,202,21.2,-999.0,66,-99.99,,,0.00,Acu-Link.com,2013-11-25 05:00:00,
2013-11-24 23:15:00,22.1,12.8,30.17,SSW,202,19.7,-999.0,67,-99.99,,,0.00,Acu-Link.com,2013-11-25 05:15:00,
2013-11-24 23:30:00,22.6,12.6,30.17,SW,225,17.1,-999.0,65,-99.99,,,0.00,Acu-Link.com,2013-11-25 05:30:00,
2013-11-24 23:45:00,23.0,12.7,30.16,SSW,202,21.2,-999.0,64,-99.99,,,0.00,Acu-Link.com,2013-11-25 05:45:00,